Location: Saluda
(35.2377°N, 82.3468°W)
Time: 14:35:57
(UTC+00:00)

SR - Pass Details

Date: 05 October 2022
Orbit: 577 x 875 km, 66.7° (Epoch: 28 November)

Event Time Altitude Azimuth Distance (km) Brightness Sun altitude
Rises 10:17:42 0° 340° (NNW) 3,294 ? -15.0°
Reaches altitude 10° 10:20:24 10° 349° (N) 2,312 ? -14.5°
Maximum altitude 10:25:16 37° 56° (NE) 1,122 ? -13.5°
Drops below altitude 10° 10:29:43 10° 124° (ESE) 2,116 ? -12.6°
Sets 10:32:05 0° 133° (SE) 2,979 ? -12.1°
